Flag for U.S.A. Weather past 2 weeks in Pasadena, Texas, U.S.A.

Now
79 °F

Passing clouds.


Feels Like: 82 °F
Forecast: 77 / 78 °F
Wind: 9 mph from Southeast

Location: Houston / Ellington

Current Time: May 24, 2015 at 1:05:04 AM

Latest Report: May 23, 2015 at 11:50 PM


Visibility: 10 mi

Pressure: 30.02 "Hg

Humidity: 84%

Dew point: 73 °F

Location of PasadenaLocation

Historic Weather in Pasadena — Graph

°F

Pasadena temperature yesterday

Maximum temperature yesterday: 84 °F (at 10:50 AM)
Minimum temperature yesterday: 75 °F (at 4:50 AM)
Average temperature yesterday: 80 °F

Past Weeks' High & Low Weather Summary

 TemperatureHumidityPressure
High90 °F (May 21, 11:50 AM)100% (May 11, 10:50 PM)30.17 "Hg (May 11, 10:50 PM)
Low66 °F (May 22, 8:50 AM)66% (May 14, 1:50 PM)29.87 "Hg (May 9, 2:50 AM)
Average78 °F87%30.02 "Hg
* Reported May 8 11:50 PM — May 23 11:50 PM, Pasadena, Weather by CustomWeather, © 2015

Note: Actual official high and low records may vary slightly from our data, if they occured in-between our weather recording intervals... More about our weather records

Advertising

Pasadena weather history for previous 24 hours

 ConditionsComfort  
Time TempWeatherWind HumidityBarometerVisibility
11:50 PM
Sat, May 23
79 °FPassing clouds.9 mph84%30.02 "Hg10 mi
10:50 PM79 °FPassing clouds.9 mph84%30.01 "Hg10 mi
9:50 PM79 °FPassing clouds.8 mph84%30.01 "Hg10 mi
8:50 PM79 °FPartly sunny.9 mph84%30.00 "Hg10 mi
7:50 PM81 °FBroken clouds.10 mph79%29.99 "Hg10 mi
6:50 PM81 °FPartly sunny.14 mph79%29.98 "Hg10 mi
5:50 PM82 °FPartly sunny.13 mph70%30.00 "Hg10 mi
4:50 PM82 °FBroken clouds.13 mph70%30.03 "Hg10 mi
3:50 PM84 °FScattered showers. Broken clouds.12 mph66%30.05 "Hg10 mi
2:50 PM84 °FScattered showers. Partly sunny.12 mph66%30.08 "Hg10 mi
1:50 PM84 °FScattered showers. Partly sunny.12 mph66%30.10 "Hg10 mi
12:50 PM84 °FScattered showers. Partly sunny.10 mph70%30.12 "Hg10 mi
11:50 AM84 °FPartly sunny.14 mph70%30.14 "Hg10 mi
10:50 AM84 °FPartly sunny.9 mph74%30.14 "Hg16 mi
9:50 AM82 °FPartly sunny.7 mph79%30.14 "Hg10 mi
8:50 AM79 °FPartly sunny.10 mph84%30.15 "Hg10 mi
7:50 AM77 °FBroken clouds.3 mph89%30.13 "Hg10 mi
6:50 AM75 °FPassing clouds.3 mph94%30.11 "Hg7 mi
5:50 AM75 °FPassing clouds.3 mph94%30.10 "Hg7 mi
4:50 AM75 °FPassing clouds.5 mph94%30.10 "Hg7 mi
3:50 AM77 °FPassing clouds.6 mph89%30.09 "Hg7 mi
2:50 AM77 °FPassing clouds.6 mph89%30.08 "Hg7 mi
1:50 AM77 °FPartly cloudy.6 mph89%30.08 "Hg7 mi
Weather by CustomWeather, © 2015

See weather overviewHow to use our weather pages